Weather History for Kansas City International, MO

Change the Weather History Date:

Wednesday, April 24, 2013

  Actual Average Record
Temperature  
Mean Temperature 41 °F 58 °F  
Max Temperature 54 °F 68 °F 90 °F (1989)
Min Temperature 28 °F 47 °F 27 °F (1967)
Degree Days  
Heating Degree Days 24 8  
Month to date heating degree days 412 285  
Since 1 July heating degree days 4980 4976  
Cooling Degree Days 0 1  
Month to date cooling degree days 0 18  
Year to date cooling degree days 0 21  
Moisture  
Dew Point 27 °F    
Average Humidity 55    
Maximum Humidity 78    
Minimum Humidity 32    
Precipitation  
Precipitation 0.00 in 0.14 in 0.91 in (1897)
Month to date precipitation 3.42 2.79  
Year to date precipitation 8.26 7.69  
Snow  
Snow 0.00 in 0.00 in 1.10 in (1918)
Month to date snowfall T 0.6  
Since 1 July snowfall 31.3 18.8  
Snow Depth 0.00 in    
Sea Level Pressure  
Sea Level Pressure 30.21 in    
Wind  
Wind Speed 9 mph (West)    
Max Wind Speed 18 mph    
Max Gust Speed 25 mph    
Visibility 10 miles    
Events      
T = Trace of Precipitation, MM = Missing Value Source: NWS Daily Summary

Daily Weather History Graph

Daily Weather History Graph

Search for Another Location

Airport:

Trip Planner

Search our weather history database for the weather conditions in past years. The results will help you decide how hot, cold, wet, or windy it might be!

Date:

Astronomy

Apr. 24, 2013 Rise Set
Actual Time 6:28 AM CDT 8:05 PM CDT
Civil Twilight 6:00 AM CDT 8:34 PM CDT
Nautical Twilight 5:26 AM CDT 9:08 PM CDT
Astronomical Twilight 4:50 AM CDT 9:45 PM CDT
Moon 7:10 PM CDT (4/24) 5:32 AM CDT (4/24)
Length of Visible Light 14h 33m
Length of Day
13h 36m
Waxing Gibbous, 98% of the Moon is Illuminated
Apr 24
Waxing Gibbous
Apr 25
Full
May 2
Last Quarter
May 9
New
May 17
First Quarter

Hourly Weather History & Observations

Time (CDT) Temp. Windchill Dew Point Humidity Pressure Visibility Wind Dir Wind Speed Gust Speed Precip Events Conditions
12:53 AM 36.0 °F 29.6 °F 28.0 °F 73% 30.19 in 10.0 mi NW 8.1 mph - N/A   Overcast
1:53 AM 35.1 °F 29.3 °F 28.0 °F 76% 30.19 in 10.0 mi NW 6.9 mph - N/A   Overcast
2:53 AM 34.0 °F 26.6 °F 27.0 °F 75% 30.18 in 10.0 mi NW 9.2 mph - N/A   Overcast
3:53 AM 33.1 °F 24.9 °F 26.1 °F 75% 30.18 in 10.0 mi NW 10.4 mph - N/A   Mostly Cloudy
4:53 AM 30.0 °F 24.1 °F 24.1 °F 79% 30.20 in 10.0 mi NW 5.8 mph - N/A   Partly Cloudy
5:53 AM 28.9 °F 22.8 °F 23.0 °F 78% 30.23 in 10.0 mi WNW 5.8 mph - N/A   Partly Cloudy
6:53 AM 28.9 °F 22.8 °F 23.0 °F 78% 30.24 in 10.0 mi West 5.8 mph - N/A   Clear
7:53 AM 30.9 °F 26.2 °F 24.1 °F 76% 30.27 in 10.0 mi West 4.6 mph - N/A   Clear
8:53 AM 34.0 °F 28.0 °F 25.0 °F 70% 30.28 in 10.0 mi WNW 6.9 mph - N/A   Clear
9:53 AM 37.0 °F 32.4 °F 24.1 °F 59% 30.25 in 10.0 mi NW 5.8 mph - N/A   Clear
10:53 AM 39.9 °F 34.5 °F 25.0 °F 55% 30.27 in 10.0 mi NNW 8.1 mph - N/A   Partly Cloudy
11:53 AM 43.0 °F 37.7 °F 26.1 °F 51% 30.25 in 10.0 mi WNW 9.2 mph - N/A   Partly Cloudy
12:53 PM 46.0 °F 42.5 °F 28.0 °F 50% 30.25 in 10.0 mi WSW 6.9 mph - N/A   Partly Cloudy
1:53 PM 48.9 °F - 27.0 °F 43% 30.22 in 10.0 mi West 11.5 mph 17.3 mph N/A   Partly Cloudy
2:53 PM 51.1 °F - 27.0 °F 39% 30.23 in 10.0 mi West 13.8 mph 21.9 mph N/A   Scattered Clouds
3:53 PM 52.0 °F - 28.0 °F 40% 30.21 in 10.0 mi SSW 12.7 mph - N/A   Scattered Clouds
4:53 PM 53.1 °F - 25.0 °F 34% 30.19 in 10.0 mi SW 17.3 mph - N/A   Partly Cloudy
5:53 PM 54.0 °F - 27.0 °F 35% 30.18 in 10.0 mi SW 15.0 mph 18.4 mph N/A   Partly Cloudy
6:53 PM 53.1 °F - 25.0 °F 34% 30.17 in 10.0 mi West 9.2 mph 19.6 mph N/A   Partly Cloudy
7:53 PM 48.9 °F - 28.0 °F 44% 30.17 in 10.0 mi SW 6.9 mph - N/A   Clear
8:53 PM 41.0 °F 35.8 °F 30.0 °F 65% 30.18 in 10.0 mi South 8.1 mph - N/A   Clear
9:53 PM 45.0 °F 40.1 °F 32.0 °F 60% 30.19 in 10.0 mi SSW 9.2 mph - N/A   Clear
10:53 PM 45.0 °F 40.1 °F 30.9 °F 58% 30.22 in 10.0 mi SW 9.2 mph - N/A   Clear
11:53 PM 43.0 °F 40.3 °F 32.0 °F 65% 30.23 in 10.0 mi WSW 4.6 mph - N/A   Mostly Cloudy